Overview Statistics Trail Chart Weather Telemetry Raw packets
 

This is the latest recevied weather packets stored in our database for station/object WX0ABE-13. If no packets are shown the sender has not sent any weather packets the latest 10 day(s).

<< 57 58 59 60 61 62 63 >>
Time Temp. Humidity Pressure Rain* Wind** Luminosity Snow
1787947251 35° C 28% 1016.5 hPa 0 mm - 648 W/m² -
1787946950 34.44° C 27% 1016.7 hPa 0 mm - 649 W/m² -
1787946649 35.56° C 28% 1016.5 hPa 0 mm - 657 W/m² -
1787946344 34.44° C 30% 1016.8 hPa 0 mm - 667 W/m² -
1787946039 34.44° C 30% 1016.7 hPa 0 mm - 667 W/m² -
1787945738 33.89° C 30% 1017.1 hPa 0 mm - 664 W/m² -
1787945434 34.44° C 28% 1017 hPa 0 mm - 663 W/m² -
1787945130 33.89° C 31% 1017.1 hPa 0 mm - 658 W/m² -
1787944827 33.33° C 32% 1017 hPa 0 mm - 656 W/m² -
1787944521 33.89° C 31% 1017.1 hPa 0 mm - 663 W/m² -
1787944218 33.89° C 32% 1017.3 hPa 0 mm - 677 W/m² -
1787943916 32.78° C 33% 1017.1 hPa 0 mm - 678 W/m² -
1787943613 32.78° C 33% 1017.1 hPa 0 mm - 679 W/m² -
1787943307 33.33° C 34% 1017.1 hPa 0 mm - 680 W/m² -
1787943002 32.78° C 34% 1017.3 hPa 0 mm - 679 W/m² -
1787942697 32.78° C 33% 1017.5 hPa 0 mm - 677 W/m² -
1787942396 32.22° C 36% 1017.3 hPa 0 mm - 677 W/m² -
1787942092 32.22° C 36% 1017.4 hPa 0 mm - 675 W/m² -
1787941787 31.67° C 37% 1017.3 hPa 0 mm - 674 W/m² -
1787941486 31.67° C 37% 1017.6 hPa 0 mm - 670 W/m² -
1787941186 31.11° C 37% 1017.7 hPa 0 mm - 669 W/m² -
1787940881 31.11° C 38% 1017.8 hPa 0 mm - 667 W/m² -
1787940579 30.56° C 39% 1018.1 hPa 0 mm - 664 W/m² -
1787940279 30° C 40% 1018 hPa 0 mm - 660 W/m² -
1787939978 30.56° C 40% 1017.8 hPa 0 mm - 657 W/m² -

* Rain latest hour (hover to see other rain measurements)
** Current wind speed in m/s (hover to see current wind gust speed)